Year,Month,Day,Hour,Minute,Value (Times are PST for temperature in C)
2016,01,26,00,00,8.30
2016,01,26,00,01,8.30
2016,01,26,00,02,8.30
2016,01,26,00,03,8.30
2016,01,26,00,04,8.30
2016,01,26,00,05,8.30
2016,01,26,00,06,8.30
2016,01,26,00,07,8.40
2016,01,26,00,08,8.40
2016,01,26,00,09,8.40
2016,01,26,00,10,8.40
2016,01,26,00,11,8.40
2016,01,26,00,12,8.40
2016,01,26,00,13,8.40
2016,01,26,00,14,8.40
2016,01,26,00,15,8.40
2016,01,26,00,16,8.40
2016,01,26,00,17,8.40
2016,01,26,00,18,8.40
2016,01,26,00,19,8.40
2016,01,26,00,20,8.40
2016,01,26,00,21,8.40
2016,01,26,00,22,8.50
2016,01,26,00,23,8.50
2016,01,26,00,24,8.50
2016,01,26,00,25,8.50
2016,01,26,00,26,8.50
2016,01,26,00,27,8.50
2016,01,26,00,28,8.50
2016,01,26,00,29,8.50
2016,01,26,00,30,8.50
2016,01,26,00,31,8.50
2016,01,26,00,32,8.50
2016,01,26,00,33,8.50
2016,01,26,00,34,8.50
2016,01,26,00,35,8.50
2016,01,26,00,36,8.50
2016,01,26,00,37,8.50
2016,01,26,00,38,8.50
2016,01,26,00,39,8.50
2016,01,26,00,40,8.50
2016,01,26,00,41,8.40
2016,01,26,00,42,8.40
2016,01,26,00,43,8.40
2016,01,26,00,44,8.40
2016,01,26,00,45,8.40
2016,01,26,00,46,8.40
2016,01,26,00,47,8.40
2016,01,26,00,48,8.40
2016,01,26,00,49,8.40
2016,01,26,00,50,8.40
2016,01,26,00,51,8.40
2016,01,26,00,52,8.40
2016,01,26,00,53,8.40
2016,01,26,00,54,8.50
2016,01,26,00,55,8.50
2016,01,26,00,56,8.40
2016,01,26,00,57,8.40
2016,01,26,00,58,8.50
2016,01,26,00,59,8.50
2016,01,26,01,00,8.50
2016,01,26,01,01,8.50
2016,01,26,01,02,8.50
2016,01,26,01,03,8.50
2016,01,26,01,04,8.50
2016,01,26,01,05,8.50
2016,01,26,01,06,8.50
2016,01,26,01,07,8.50
2016,01,26,01,08,8.50
2016,01,26,01,09,8.50
2016,01,26,01,10,8.50
2016,01,26,01,11,8.50
2016,01,26,01,12,8.50
2016,01,26,01,13,8.50
2016,01,26,01,14,8.60
2016,01,26,01,15,8.50
2016,01,26,01,16,8.60
2016,01,26,01,17,8.60
2016,01,26,01,18,8.60
2016,01,26,01,19,8.60
2016,01,26,01,20,8.60
2016,01,26,01,21,8.60
2016,01,26,01,22,8.60
2016,01,26,01,23,8.60
2016,01,26,01,24,8.60
2016,01,26,01,25,8.60
2016,01,26,01,26,8.60
2016,01,26,01,27,8.60
2016,01,26,01,28,8.60
2016,01,26,01,29,8.60
2016,01,26,01,30,8.60
2016,01,26,01,31,8.60
2016,01,26,01,32,8.60
2016,01,26,01,33,8.60
2016,01,26,01,34,8.60
2016,01,26,01,35,8.60
2016,01,26,01,36,8.60
2016,01,26,01,37,8.60
2016,01,26,01,38,8.60
2016,01,26,01,39,8.60
2016,01,26,01,40,8.60
2016,01,26,01,41,8.60
2016,01,26,01,42,8.60
2016,01,26,01,43,8.60
2016,01,26,01,44,8.60
2016,01,26,01,45,8.60
2016,01,26,01,46,8.60
2016,01,26,01,47,8.60
2016,01,26,01,48,8.70
2016,01,26,01,49,8.70
2016,01,26,01,50,8.70
2016,01,26,01,51,8.70
2016,01,26,01,52,8.70
2016,01,26,01,53,8.70
2016,01,26,01,54,8.70
2016,01,26,01,55,8.70
2016,01,26,01,56,8.70
2016,01,26,01,57,8.70
2016,01,26,01,58,8.70
2016,01,26,01,59,8.70
2016,01,26,02,00,8.70
2016,01,26,02,01,8.70
2016,01,26,02,02,8.70
2016,01,26,02,03,8.70
2016,01,26,02,04,8.70
2016,01,26,02,05,8.70
2016,01,26,02,06,8.70
2016,01,26,02,07,8.70
2016,01,26,02,08,8.70
2016,01,26,02,09,8.70
2016,01,26,02,10,8.70
2016,01,26,02,11,8.70
2016,01,26,02,12,8.70
2016,01,26,02,13,8.60
2016,01,26,02,14,8.60
2016,01,26,02,15,8.60
2016,01,26,02,16,8.60
2016,01,26,02,17,8.60
2016,01,26,02,18,8.60
2016,01,26,02,19,8.60
2016,01,26,02,20,8.60
2016,01,26,02,21,8.60
2016,01,26,02,22,8.50
2016,01,26,02,23,8.50
2016,01,26,02,24,8.50
2016,01,26,02,25,8.50
2016,01,26,02,26,8.50
2016,01,26,02,27,8.50
2016,01,26,02,28,8.50
2016,01,26,02,29,8.50
2016,01,26,02,30,8.50
2016,01,26,02,31,8.50
2016,01,26,02,32,8.50
2016,01,26,02,33,8.50
2016,01,26,02,34,8.60
2016,01,26,02,35,8.60
2016,01,26,02,36,8.60
2016,01,26,02,37,8.60
2016,01,26,02,38,8.60
2016,01,26,02,39,8.60
2016,01,26,02,40,8.60
2016,01,26,02,41,8.60
2016,01,26,02,42,8.60
2016,01,26,02,43,8.60
2016,01,26,02,44,8.60
2016,01,26,02,45,8.60
2016,01,26,02,46,8.60
2016,01,26,02,47,8.60
2016,01,26,02,48,8.60
2016,01,26,02,49,8.60
2016,01,26,02,50,8.70
2016,01,26,02,51,8.70
2016,01,26,02,52,8.70
2016,01,26,02,53,8.70
2016,01,26,02,54,8.70
2016,01,26,02,55,8.70
2016,01,26,02,56,8.70
2016,01,26,02,57,8.70
2016,01,26,02,58,8.70
2016,01,26,02,59,8.70
2016,01,26,03,00,8.70
2016,01,26,03,01,8.70
2016,01,26,03,02,8.70
2016,01,26,03,03,8.70
2016,01,26,03,04,8.80
2016,01,26,03,05,8.80
2016,01,26,03,06,8.80
2016,01,26,03,07,8.80
2016,01,26,03,08,8.80
2016,01,26,03,09,8.80
2016,01,26,03,10,8.80
2016,01,26,03,11,8.90
2016,01,26,03,12,9.00
2016,01,26,03,13,9.00
2016,01,26,03,14,9.00
2016,01,26,03,15,9.10
2016,01,26,03,16,9.10
2016,01,26,03,17,9.10
2016,01,26,03,18,9.20
2016,01,26,03,19,9.20
2016,01,26,03,20,9.20
2016,01,26,03,21,9.20
2016,01,26,03,22,9.20
2016,01,26,03,23,9.20
2016,01,26,03,24,9.20
2016,01,26,03,25,9.20
2016,01,26,03,26,9.20
2016,01,26,03,27,9.20
2016,01,26,03,28,9.20
2016,01,26,03,29,9.20
2016,01,26,03,30,9.20
2016,01,26,03,31,9.20
2016,01,26,03,32,9.10
2016,01,26,03,33,9.10
2016,01,26,03,34,9.10
2016,01,26,03,35,9.10
2016,01,26,03,36,9.10
2016,01,26,03,37,9.00
2016,01,26,03,38,9.00
2016,01,26,03,39,9.00
2016,01,26,03,40,9.00
2016,01,26,03,41,9.00
2016,01,26,03,42,9.00
2016,01,26,03,43,9.00
2016,01,26,03,44,9.00
2016,01,26,03,45,9.00
2016,01,26,03,46,8.90
2016,01,26,03,47,8.90
2016,01,26,03,48,8.90
2016,01,26,03,49,8.90
2016,01,26,03,50,8.90
2016,01,26,03,51,8.90
2016,01,26,03,52,8.90
2016,01,26,03,53,8.90
2016,01,26,03,54,8.90
2016,01,26,03,55,8.90
2016,01,26,03,56,8.90
2016,01,26,03,57,8.90
2016,01,26,03,58,8.90
2016,01,26,03,59,8.90
2016,01,26,04,00,8.90
2016,01,26,04,01,8.90
2016,01,26,04,02,8.90
2016,01,26,04,03,8.90
2016,01,26,04,04,8.90
2016,01,26,04,05,8.90
2016,01,26,04,06,8.90
2016,01,26,04,07,8.90
2016,01,26,04,08,8.90
2016,01,26,04,09,8.90
2016,01,26,04,10,8.90
2016,01,26,04,11,8.90
2016,01,26,04,12,8.90
2016,01,26,04,13,8.90
2016,01,26,04,14,8.90
2016,01,26,04,15,8.90
2016,01,26,04,16,8.90
2016,01,26,04,17,8.90
2016,01,26,04,18,9.00
2016,01,26,04,19,9.00
2016,01,26,04,20,9.00
2016,01,26,04,21,9.00
2016,01,26,04,22,9.00
2016,01,26,04,23,9.00
2016,01,26,04,24,8.90
2016,01,26,04,25,9.00
2016,01,26,04,26,8.90
2016,01,26,04,27,8.90
2016,01,26,04,28,9.00
2016,01,26,04,29,9.00
2016,01,26,04,30,9.00
2016,01,26,04,31,9.00
2016,01,26,04,32,9.00
2016,01,26,04,33,9.00
2016,01,26,04,34,9.00
2016,01,26,04,35,9.00
2016,01,26,04,36,9.00
2016,01,26,04,37,9.00
2016,01,26,04,38,9.00
2016,01,26,04,39,9.00
2016,01,26,04,40,9.00
2016,01,26,04,41,9.00
2016,01,26,04,42,9.00
2016,01,26,04,43,9.00
2016,01,26,04,44,9.00
2016,01,26,04,45,9.00
2016,01,26,04,46,9.00
2016,01,26,04,47,8.90
2016,01,26,04,48,8.90
2016,01,26,04,49,8.80
2016,01,26,04,50,8.80
2016,01,26,04,51,8.80
2016,01,26,04,52,8.70
2016,01,26,04,53,8.70
2016,01,26,04,54,8.70
2016,01,26,04,55,8.70
2016,01,26,04,56,8.70
2016,01,26,04,57,8.70
2016,01,26,04,58,8.70
2016,01,26,04,59,8.70
2016,01,26,05,00,8.70
2016,01,26,05,01,8.70
2016,01,26,05,02,8.70
2016,01,26,05,03,8.70
2016,01,26,05,04,8.60
2016,01,26,05,05,8.60
2016,01,26,05,06,8.60
2016,01,26,05,07,8.60
2016,01,26,05,08,8.60
2016,01,26,05,09,8.50
2016,01,26,05,10,8.50
2016,01,26,05,11,8.50
2016,01,26,05,12,8.40
2016,01,26,05,13,8.40
2016,01,26,05,14,8.40
2016,01,26,05,15,8.40
2016,01,26,05,16,8.40
2016,01,26,05,17,8.30
2016,01,26,05,18,8.30
2016,01,26,05,19,8.30
2016,01,26,05,20,8.30
2016,01,26,05,21,8.30
2016,01,26,05,22,8.30
2016,01,26,05,23,8.30
2016,01,26,05,24,8.30
2016,01,26,05,25,8.30
2016,01,26,05,26,8.20
2016,01,26,05,27,8.20
2016,01,26,05,28,8.20
2016,01,26,05,29,8.20
2016,01,26,05,30,8.20
2016,01,26,05,31,8.20
2016,01,26,05,32,8.20
2016,01,26,05,33,8.10
2016,01,26,05,34,8.10
2016,01,26,05,35,8.10
2016,01,26,05,36,8.10
2016,01,26,05,37,8.10
2016,01,26,05,38,8.10
2016,01,26,05,39,8.10
2016,01,26,05,40,8.10
2016,01,26,05,41,8.10
2016,01,26,05,42,8.10
2016,01,26,05,43,8.10
2016,01,26,05,44,8.10
2016,01,26,05,45,8.10
2016,01,26,05,46,8.00
2016,01,26,05,47,8.00
2016,01,26,05,48,8.00
2016,01,26,05,49,8.00
2016,01,26,05,50,8.00
2016,01,26,05,51,8.00
2016,01,26,05,52,8.10
2016,01,26,05,53,8.10
2016,01,26,05,54,8.10
2016,01,26,05,55,8.10
2016,01,26,05,56,8.10
2016,01,26,05,57,8.20
2016,01,26,05,58,8.20
2016,01,26,05,59,8.20
2016,01,26,06,00,8.20
2016,01,26,06,01,8.20
2016,01,26,06,02,8.20
2016,01,26,06,03,8.20
2016,01,26,06,04,8.20
2016,01,26,06,05,8.20
2016,01,26,06,06,8.20
2016,01,26,06,07,8.20
2016,01,26,06,08,8.20
2016,01,26,06,09,8.20
2016,01,26,06,10,8.20
2016,01,26,06,11,8.20
2016,01,26,06,12,8.20
2016,01,26,06,13,8.20
2016,01,26,06,14,8.20
2016,01,26,06,15,8.20
2016,01,26,06,16,8.20
2016,01,26,06,17,8.20
2016,01,26,06,18,8.10
2016,01,26,06,19,8.10
2016,01,26,06,20,8.10
2016,01,26,06,21,8.10
2016,01,26,06,22,8.10
2016,01,26,06,23,8.10
2016,01,26,06,24,8.10
2016,01,26,06,25,8.10
2016,01,26,06,26,8.10
2016,01,26,06,27,8.00
2016,01,26,06,28,8.00
2016,01,26,06,29,7.90
2016,01,26,06,30,7.90
2016,01,26,06,31,7.90
2016,01,26,06,32,7.90
2016,01,26,06,33,7.90
2016,01,26,06,34,7.90
2016,01,26,06,35,7.90
2016,01,26,06,36,7.90
2016,01,26,06,37,7.90
2016,01,26,06,38,7.90
2016,01,26,09,27,8.10
2016,01,26,09,28,8.10
2016,01,26,09,29,8.10
2016,01,26,09,30,8.10
2016,01,26,09,31,8.10
2016,01,26,09,32,8.10
2016,01,26,09,33,8.20
2016,01,26,09,34,8.20
2016,01,26,09,35,8.20
2016,01,26,09,36,8.20
2016,01,26,09,37,8.20
2016,01,26,09,38,8.20
2016,01,26,09,39,8.20
2016,01,26,09,40,8.20
2016,01,26,09,41,8.20
2016,01,26,09,42,8.20
2016,01,26,09,43,8.20
2016,01,26,09,44,8.20
2016,01,26,09,45,8.20
2016,01,26,09,46,8.20
2016,01,26,09,47,8.20
2016,01,26,09,48,8.20
2016,01,26,09,49,8.20
2016,01,26,09,50,8.20
2016,01,26,09,51,8.20
2016,01,26,09,52,8.30
2016,01,26,09,53,8.30
2016,01,26,09,54,8.30
2016,01,26,09,55,8.30
2016,01,26,09,56,8.30
2016,01,26,09,57,8.30
2016,01,26,09,58,8.30
2016,01,26,09,59,8.40
2016,01,26,10,00,8.40
2016,01,26,10,01,8.40
2016,01,26,10,02,8.50
2016,01,26,10,03,8.50
2016,01,26,10,04,8.50
2016,01,26,10,05,8.50
2016,01,26,10,06,8.50
2016,01,26,10,07,8.50
2016,01,26,10,08,8.60
2016,01,26,10,09,8.60
2016,01,26,10,10,8.60
2016,01,26,10,11,8.60
2016,01,26,10,12,8.60
2016,01,26,10,13,8.60
2016,01,26,10,14,8.60
2016,01,26,10,15,8.60
2016,01,26,10,16,8.60
2016,01,26,10,17,8.60
2016,01,26,10,18,8.60
2016,01,26,10,19,8.70
2016,01,26,10,20,8.70
2016,01,26,10,21,8.70
2016,01,26,10,22,8.70
2016,01,26,10,23,8.70
2016,01,26,10,24,8.70
2016,01,26,10,25,8.70
2016,01,26,10,26,8.70
2016,01,26,10,27,8.70
2016,01,26,10,28,8.70
2016,01,26,10,29,8.70
2016,01,26,10,30,8.80
2016,01,26,10,31,8.70
2016,01,26,10,32,8.80
2016,01,26,10,33,8.80
2016,01,26,10,34,8.80
2016,01,26,10,35,8.80
2016,01,26,10,36,8.80
2016,01,26,10,37,8.80
2016,01,26,10,38,8.80
2016,01,26,10,39,8.80
2016,01,26,10,40,8.80
2016,01,26,10,41,8.80
2016,01,26,10,42,8.80
2016,01,26,10,43,8.80
2016,01,26,10,44,8.80
2016,01,26,10,45,8.80
2016,01,26,10,46,8.80
2016,01,26,10,47,8.80
2016,01,26,10,48,8.80
2016,01,26,10,49,8.80
2016,01,26,10,50,8.80
2016,01,26,10,51,8.80
2016,01,26,10,52,8.80
2016,01,26,10,53,8.80
2016,01,26,10,54,8.80
2016,01,26,10,55,8.80
2016,01,26,10,56,8.90
2016,01,26,10,57,8.80
2016,01,26,10,58,8.90
2016,01,26,10,59,8.90
2016,01,26,11,00,8.90
2016,01,26,11,01,8.90
2016,01,26,11,02,8.90
2016,01,26,11,03,8.90
2016,01,26,11,04,8.90
2016,01,26,11,05,8.90
2016,01,26,11,06,9.00
2016,01,26,11,07,9.00
2016,01,26,11,08,9.00
2016,01,26,11,09,9.00
2016,01,26,11,10,9.10
2016,01,26,11,11,9.10
2016,01,26,11,12,9.10
2016,01,26,11,13,9.10
2016,01,26,11,14,9.10
2016,01,26,11,15,9.10
2016,01,26,11,16,9.10
2016,01,26,11,17,9.20
2016,01,26,11,18,9.20
2016,01,26,11,19,9.20
2016,01,26,11,20,9.20
2016,01,26,11,21,9.20
2016,01,26,11,22,9.20
2016,01,26,11,23,9.20
2016,01,26,11,24,9.20
2016,01,26,11,25,9.20
2016,01,26,11,26,9.20
2016,01,26,11,27,9.20
2016,01,26,11,28,9.20
2016,01,26,11,29,9.20
2016,01,26,11,30,9.20
2016,01,26,11,31,9.20
2016,01,26,11,32,9.20
2016,01,26,11,33,9.20
2016,01,26,11,34,9.20
2016,01,26,11,35,9.20
2016,01,26,11,36,9.20
2016,01,26,11,37,9.20
2016,01,26,11,38,9.30
2016,01,26,11,39,9.30
2016,01,26,11,40,9.30
2016,01,26,11,41,9.30
2016,01,26,11,42,9.30
2016,01,26,11,43,9.30
2016,01,26,11,44,9.40
2016,01,26,11,45,9.40
2016,01,26,11,46,9.40
2016,01,26,11,47,9.40
2016,01,26,11,48,9.40
2016,01,26,11,49,9.40
2016,01,26,11,50,9.40
2016,01,26,11,51,9.50
2016,01,26,11,52,9.50
2016,01,26,11,53,9.50
2016,01,26,11,54,9.50
2016,01,26,11,55,9.50
2016,01,26,11,56,9.60
2016,01,26,11,57,9.60
2016,01,26,11,58,9.50
2016,01,26,11,59,9.50
2016,01,26,12,00,9.60
2016,01,26,12,01,9.60
2016,01,26,12,02,9.60
2016,01,26,12,03,9.50
2016,01,26,12,04,9.50
2016,01,26,12,05,9.50
2016,01,26,12,06,9.50
2016,01,26,12,07,9.50
2016,01,26,12,08,9.50
2016,01,26,12,09,9.40
2016,01,26,12,10,9.40
2016,01,26,12,11,9.40
2016,01,26,12,12,9.40
2016,01,26,12,13,9.40
2016,01,26,12,14,9.40
2016,01,26,12,15,9.40
2016,01,26,12,16,9.40
2016,01,26,12,17,9.40
2016,01,26,12,18,9.40
2016,01,26,12,19,9.40
2016,01,26,12,20,9.40
2016,01,26,12,21,9.40
2016,01,26,12,22,9.40
2016,01,26,12,23,9.40
2016,01,26,12,24,9.30
2016,01,26,12,25,9.30
2016,01,26,12,26,9.30
2016,01,26,12,27,9.30
2016,01,26,12,28,9.20
2016,01,26,12,29,9.20
2016,01,26,12,30,9.20
2016,01,26,12,31,9.10
2016,01,26,12,32,9.10
2016,01,26,12,33,9.10
2016,01,26,12,34,9.10
2016,01,26,12,35,9.10
2016,01,26,12,36,9.10
2016,01,26,12,37,9.10
2016,01,26,12,38,9.10
2016,01,26,12,39,9.10
2016,01,26,12,40,9.10
2016,01,26,12,41,9.20
2016,01,26,12,42,9.20
2016,01,26,12,43,9.10
2016,01,26,12,44,9.10
2016,01,26,12,45,9.10
2016,01,26,12,46,9.10
2016,01,26,12,47,9.10
2016,01,26,12,48,9.10
2016,01,26,12,49,9.10
2016,01,26,12,50,9.00
2016,01,26,12,51,9.00
2016,01,26,12,52,9.00
2016,01,26,12,53,9.10
2016,01,26,12,54,9.20
2016,01,26,12,55,9.20
2016,01,26,12,56,9.20
2016,01,26,12,57,9.30
2016,01,26,12,58,9.30
2016,01,26,12,59,9.30
2016,01,26,13,00,9.30
2016,01,26,13,01,9.40
2016,01,26,13,02,9.40
2016,01,26,13,03,9.40
2016,01,26,13,04,9.40
2016,01,26,13,05,9.40
2016,01,26,13,06,9.40
2016,01,26,13,07,9.40
2016,01,26,13,08,9.40
2016,01,26,13,09,9.40
2016,01,26,13,10,9.40
2016,01,26,13,11,9.40
2016,01,26,13,12,9.50
2016,01,26,13,13,9.50
2016,01,26,13,14,9.50
2016,01,26,13,15,9.50
2016,01,26,13,16,9.50
2016,01,26,13,17,9.50
2016,01,26,13,18,9.50
2016,01,26,13,19,9.60
2016,01,26,13,20,9.60
2016,01,26,13,21,9.60
2016,01,26,13,22,9.60
2016,01,26,13,23,9.70
2016,01,26,13,24,9.70
2016,01,26,13,25,9.70
2016,01,26,13,26,9.70
2016,01,26,13,27,9.70
2016,01,26,13,28,9.70
2016,01,26,13,29,9.70
2016,01,26,13,30,9.70
2016,01,26,13,31,9.70
2016,01,26,13,32,9.70
2016,01,26,13,33,9.70
2016,01,26,13,34,9.70
2016,01,26,13,35,9.80
2016,01,26,13,36,9.80
2016,01,26,13,37,9.80
2016,01,26,13,38,9.80
2016,01,26,13,39,9.80
2016,01,26,13,40,9.80
2016,01,26,13,41,9.80
2016,01,26,13,42,9.90
2016,01,26,13,43,9.90
2016,01,26,13,44,9.90
2016,01,26,13,45,9.90
2016,01,26,13,46,9.90
2016,01,26,13,47,9.90
2016,01,26,13,48,9.90
2016,01,26,13,49,10.00
2016,01,26,13,50,10.00
2016,01,26,13,51,10.10
2016,01,26,13,52,10.10
2016,01,26,13,53,10.10
2016,01,26,13,54,10.10
2016,01,26,13,55,10.10
2016,01,26,13,56,10.10
2016,01,26,13,57,10.20
2016,01,26,13,58,10.20
2016,01,26,13,59,10.20
2016,01,26,14,00,10.20
2016,01,26,14,01,10.20
2016,01,26,14,02,10.20
2016,01,26,14,03,10.30
2016,01,26,14,04,10.30
2016,01,26,14,05,10.30
2016,01,26,14,06,10.40
2016,01,26,14,07,10.40
2016,01,26,14,08,10.50
2016,01,26,14,09,10.50
2016,01,26,14,10,10.50
2016,01,26,14,11,10.60
2016,01,26,14,12,10.60
2016,01,26,14,13,10.60
2016,01,26,14,14,10.50
2016,01,26,14,15,10.50
2016,01,26,14,16,10.40
2016,01,26,14,17,10.40
2016,01,26,14,18,10.40
2016,01,26,14,19,10.50
2016,01,26,14,20,10.50
2016,01,26,14,21,10.60
2016,01,26,14,22,10.60
2016,01,26,14,23,10.60
2016,01,26,14,24,10.60
2016,01,26,14,25,10.60
2016,01,26,14,26,10.70
2016,01,26,14,27,10.70
2016,01,26,14,28,10.70
2016,01,26,14,29,10.70
2016,01,26,14,30,10.80
2016,01,26,14,31,10.80
2016,01,26,14,32,10.80
2016,01,26,14,33,10.80
2016,01,26,14,34,10.70
2016,01,26,14,35,10.70
2016,01,26,14,36,10.70
2016,01,26,14,37,10.70
2016,01,26,14,38,10.70
2016,01,26,14,39,10.60
2016,01,26,14,40,10.60
2016,01,26,14,41,10.60
2016,01,26,14,42,10.60
2016,01,26,14,43,10.60
2016,01,26,14,44,10.60
2016,01,26,14,45,10.60
2016,01,26,14,46,10.60
2016,01,26,14,47,10.60
2016,01,26,14,48,10.60
2016,01,26,14,49,10.60
2016,01,26,14,50,10.60
2016,01,26,14,51,10.70
2016,01,26,14,52,10.70
2016,01,26,14,53,10.70
2016,01,26,14,54,10.70
2016,01,26,14,55,10.70
2016,01,26,14,56,10.70
2016,01,26,14,57,10.70
2016,01,26,14,58,10.70
2016,01,26,14,59,10.70
2016,01,26,15,00,10.70
2016,01,26,15,01,10.70
2016,01,26,15,02,10.70
2016,01,26,15,03,10.70
2016,01,26,15,04,10.70
2016,01,26,15,05,10.70
2016,01,26,15,06,10.70
2016,01,26,15,07,10.70
2016,01,26,15,08,10.70
2016,01,26,15,09,10.70
2016,01,26,15,10,10.70
2016,01,26,15,11,10.80
2016,01,26,15,12,10.80
2016,01,26,15,13,10.80
2016,01,26,15,14,10.80
2016,01,26,15,15,10.80
2016,01,26,15,16,10.80
2016,01,26,15,17,10.80
2016,01,26,15,18,10.80
2016,01,26,15,19,10.80
2016,01,26,15,20,10.80
2016,01,26,15,21,10.80
2016,01,26,15,22,10.80
2016,01,26,15,23,10.80
2016,01,26,15,24,10.80
2016,01,26,15,25,10.80
2016,01,26,15,26,10.80
2016,01,26,15,27,10.80
2016,01,26,15,28,10.80
2016,01,26,15,29,10.80
2016,01,26,15,30,10.80
2016,01,26,15,31,10.90
2016,01,26,15,32,10.90
2016,01,26,15,33,10.90
2016,01,26,15,34,10.90
2016,01,26,15,35,10.90
2016,01,26,15,36,10.90
2016,01,26,15,37,10.90
2016,01,26,15,38,10.90
2016,01,26,15,39,10.90
2016,01,26,15,40,10.90
2016,01,26,15,41,10.90
2016,01,26,15,42,10.90
2016,01,26,15,43,10.90
2016,01,26,15,44,10.90
2016,01,26,15,45,10.90
2016,01,26,15,46,10.90
2016,01,26,15,47,10.90
2016,01,26,15,48,10.90
2016,01,26,15,49,10.90
2016,01,26,15,50,10.90
2016,01,26,15,51,10.90
2016,01,26,15,52,10.90
2016,01,26,15,53,10.90
2016,01,26,15,54,10.90
2016,01,26,15,55,10.90
2016,01,26,15,56,10.90
2016,01,26,15,57,10.90
2016,01,26,15,58,10.90
2016,01,26,15,59,10.90
2016,01,26,16,00,10.90
2016,01,26,16,01,10.90
2016,01,26,16,02,10.90
2016,01,26,16,03,10.90
2016,01,26,16,04,11.00
2016,01,26,16,05,11.00
2016,01,26,16,06,10.90
2016,01,26,16,07,10.90
2016,01,26,16,08,10.90
2016,01,26,16,09,10.90
2016,01,26,16,10,10.90
2016,01,26,16,11,10.90
2016,01,26,16,12,10.90
2016,01,26,16,13,10.90
2016,01,26,16,14,10.90
2016,01,26,16,15,10.90
2016,01,26,16,16,10.90
2016,01,26,16,17,10.90
2016,01,26,16,18,10.90
2016,01,26,16,19,10.90
2016,01,26,16,20,10.90
2016,01,26,16,21,10.90
2016,01,26,16,22,10.90
2016,01,26,16,23,10.90
2016,01,26,16,24,10.90
2016,01,26,16,25,10.90
2016,01,26,16,26,10.90
2016,01,26,16,27,10.90
2016,01,26,16,28,10.90
2016,01,26,16,29,10.80
2016,01,26,16,30,10.80
2016,01,26,16,31,10.80
2016,01,26,16,32,10.80
2016,01,26,16,33,10.80
2016,01,26,16,34,10.80
2016,01,26,16,35,10.80
2016,01,26,16,36,10.80
2016,01,26,16,37,10.80
2016,01,26,16,38,10.80
2016,01,26,16,39,10.80
2016,01,26,16,40,10.80
2016,01,26,16,41,10.80
2016,01,26,16,42,10.80
2016,01,26,16,43,10.80
2016,01,26,16,44,10.80
2016,01,26,16,45,10.80
2016,01,26,16,46,10.80
2016,01,26,16,47,10.80
2016,01,26,16,48,10.80
2016,01,26,16,49,10.70
2016,01,26,16,50,10.80
2016,01,26,16,51,10.70
2016,01,26,16,52,10.80
2016,01,26,16,53,10.70
2016,01,26,16,54,10.80
2016,01,26,16,55,10.80
2016,01,26,16,56,10.80
2016,01,26,16,57,10.80
2016,01,26,16,58,10.80
2016,01,26,16,59,10.80
2016,01,26,17,00,10.80
2016,01,26,17,01,10.80
2016,01,26,17,02,10.80
2016,01,26,17,03,10.80
2016,01,26,17,04,10.80
2016,01,26,17,05,10.80
2016,01,26,17,06,10.80
2016,01,26,17,07,10.80
2016,01,26,17,08,10.80
2016,01,26,17,09,10.80
2016,01,26,17,10,10.80
2016,01,26,17,11,10.80
2016,01,26,17,12,10.80
2016,01,26,17,13,10.80
2016,01,26,17,14,10.80
2016,01,26,17,15,10.80
2016,01,26,17,16,10.80
2016,01,26,17,17,10.80
2016,01,26,17,18,10.80
2016,01,26,17,19,10.80
2016,01,26,17,20,10.80
2016,01,26,17,21,10.80
2016,01,26,17,22,10.80
2016,01,26,17,23,10.80
2016,01,26,17,24,10.80
2016,01,26,17,25,10.80
2016,01,26,17,26,10.80
2016,01,26,17,27,10.70
2016,01,26,17,28,10.70
2016,01,26,17,29,10.70
2016,01,26,17,30,10.70
2016,01,26,17,31,10.70
2016,01,26,17,32,10.70
2016,01,26,17,33,10.70
2016,01,26,17,34,10.70
2016,01,26,17,35,10.70
2016,01,26,17,36,10.70
2016,01,26,17,37,10.70
2016,01,26,17,38,10.70
2016,01,26,17,39,10.70
2016,01,26,17,40,10.70
2016,01,26,17,41,10.70
2016,01,26,17,42,10.70
2016,01,26,17,43,10.70
2016,01,26,17,44,10.70
2016,01,26,17,45,10.70
2016,01,26,17,46,10.70
2016,01,26,17,47,10.70
2016,01,26,17,48,10.70
2016,01,26,17,49,10.70
2016,01,26,17,50,10.70
2016,01,26,17,51,10.70
2016,01,26,17,52,10.70
2016,01,26,17,53,10.70
2016,01,26,17,54,10.70
2016,01,26,17,55,10.70
2016,01,26,17,56,10.70
2016,01,26,17,57,10.70
2016,01,26,17,58,10.70
2016,01,26,17,59,10.70
2016,01,26,18,00,10.70
2016,01,26,18,01,10.70
2016,01,26,18,02,10.70
2016,01,26,18,03,10.70
2016,01,26,18,04,10.70
2016,01,26,18,05,10.70
2016,01,26,18,06,10.70
2016,01,26,18,07,10.70
2016,01,26,18,08,10.70
2016,01,26,18,09,10.70
2016,01,26,18,10,10.70
2016,01,26,18,11,10.70
2016,01,26,18,12,10.70
2016,01,26,18,13,10.70
2016,01,26,18,14,10.70
2016,01,26,18,15,10.70
2016,01,26,18,16,10.70
2016,01,26,18,17,10.70
2016,01,26,18,18,10.70
2016,01,26,18,19,10.70
2016,01,26,18,20,10.70
2016,01,26,18,21,10.70
2016,01,26,18,22,10.70
2016,01,26,18,23,10.70
2016,01,26,18,24,10.70
2016,01,26,18,25,10.70
2016,01,26,18,26,10.70
2016,01,26,18,27,10.70
2016,01,26,18,28,10.70
2016,01,26,18,29,10.70
2016,01,26,18,30,10.70
2016,01,26,18,31,10.70
2016,01,26,18,32,10.70
2016,01,26,18,33,10.60
2016,01,26,18,34,10.70
2016,01,26,18,35,10.70
2016,01,26,18,36,10.60
2016,01,26,18,37,10.60
2016,01,26,18,38,10.60
2016,01,26,18,39,10.60
2016,01,26,18,40,10.60
2016,01,26,18,41,10.60
2016,01,26,18,42,10.60
2016,01,26,18,43,10.60
2016,01,26,18,44,10.60
2016,01,26,18,45,10.60
2016,01,26,18,46,10.60
2016,01,26,18,47,10.60
2016,01,26,18,48,10.60
2016,01,26,18,49,10.60
2016,01,26,18,50,10.60
2016,01,26,18,51,10.50
2016,01,26,18,52,10.50
2016,01,26,18,53,10.50
2016,01,26,18,54,10.50
2016,01,26,18,55,10.50
2016,01,26,18,56,10.40
2016,01,26,18,57,10.40
2016,01,26,18,58,10.40
2016,01,26,18,59,10.40
2016,01,26,19,00,10.40
2016,01,26,19,01,10.40
2016,01,26,19,02,10.40
2016,01,26,19,03,10.40
2016,01,26,19,04,10.30
2016,01,26,19,05,10.30
2016,01,26,19,06,10.30
2016,01,26,19,07,10.30
2016,01,26,19,08,10.30
2016,01,26,19,09,10.30
2016,01,26,19,10,10.30
2016,01,26,19,11,10.20
2016,01,26,19,12,10.20
2016,01,26,19,13,10.20
2016,01,26,19,14,10.20
2016,01,26,19,15,10.20
2016,01,26,19,16,10.20
2016,01,26,19,17,10.20
2016,01,26,19,18,10.20
2016,01,26,19,19,10.20
2016,01,26,19,20,10.20
2016,01,26,19,21,10.20
2016,01,26,19,22,10.20
2016,01,26,19,23,10.20
2016,01,26,19,24,10.20
2016,01,26,19,25,10.10
2016,01,26,19,26,10.10
2016,01,26,19,27,10.10
2016,01,26,19,28,10.10
2016,01,26,19,29,10.10
2016,01,26,19,30,10.10
2016,01,26,19,31,10.10
2016,01,26,19,32,10.10
2016,01,26,19,33,10.10
2016,01,26,19,34,10.10
2016,01,26,19,35,10.10
2016,01,26,19,36,10.10
2016,01,26,19,37,10.10
2016,01,26,19,38,10.10
2016,01,26,19,39,10.10
2016,01,26,19,40,10.10
2016,01,26,19,41,10.10
2016,01,26,19,42,10.10
2016,01,26,19,43,10.10
2016,01,26,19,44,10.10
2016,01,26,19,45,10.10
2016,01,26,19,46,10.10
2016,01,26,19,47,10.10
2016,01,26,19,48,10.10
2016,01,26,19,49,10.20
2016,01,26,19,50,10.20
2016,01,26,19,51,10.20
2016,01,26,19,52,10.20
2016,01,26,19,53,10.20
2016,01,26,19,54,10.20
2016,01,26,19,55,10.20
2016,01,26,19,56,10.20
2016,01,26,19,57,10.20
2016,01,26,19,58,10.20
2016,01,26,19,59,10.20
2016,01,26,20,00,10.20
2016,01,26,20,01,10.20
2016,01,26,20,02,10.20
2016,01,26,20,03,10.20
2016,01,26,20,04,10.20
2016,01,26,20,05,10.20
2016,01,26,20,06,10.20
2016,01,26,20,07,10.20
2016,01,26,20,08,10.20
2016,01,26,20,09,10.20
2016,01,26,20,10,10.20
2016,01,26,20,11,10.30
2016,01,26,20,12,10.30
2016,01,26,20,13,10.30
2016,01,26,20,14,10.30
2016,01,26,20,15,10.30
2016,01,26,20,16,10.30
2016,01,26,20,17,10.30
2016,01,26,20,18,10.30
2016,01,26,20,19,10.30
2016,01,26,20,20,10.30
2016,01,26,20,21,10.30
2016,01,26,20,22,10.30
2016,01,26,20,23,10.30
2016,01,26,20,24,10.30
2016,01,26,20,25,10.30
2016,01,26,20,26,10.30
2016,01,26,20,27,10.30
2016,01,26,20,28,10.30
2016,01,26,20,29,10.30
2016,01,26,20,30,10.30
2016,01,26,20,31,10.30
2016,01,26,20,32,10.30
2016,01,26,20,33,10.30
2016,01,26,20,34,10.30
2016,01,26,20,35,10.30
2016,01,26,20,36,10.20